Weather History for McCall, ID

Change the Weather History Date:

Friday, July 11, 2014

  Actual Average Record
Temperature  
Mean Temperature 70 °F 60 °F  
Max Temperature 90 °F 77 °F 95 °F (2002)
Min Temperature 49 °F 43 °F 33 °F (1987)
Degree Days  
Heating Degree Days 0 5  
Month to date heating degree days 2 72  
Since 1 June heating degree days 316 439  
Since 1 July heating degree days 2 72  
Cooling Degree Days 5 0  
Month to date cooling degree days 45 0  
Year to date cooling degree days 45 1  
Since 1 June cooling degree days 45 1  
Growing Degree Days 19 (Base 50)    
Moisture  
Dew Point 40 °F    
Average Humidity 45    
Maximum Humidity 77    
Minimum Humidity 13    
Precipitation  
Precipitation 0.00 in 0.02 in 0.25 in (1974)
Month to date precipitation T 0.37  
Year to date precipitation 15.19 12.01  
Sea Level Pressure  
Sea Level Pressure 29.92 in    
Wind  
Wind Speed 5 mph (NW)    
Max Wind Speed 15 mph    
Max Gust Speed 19 mph    
Visibility 10 miles    
Events      
T = Trace of Precipitation, MM = Missing Value Source: NWS Daily Summary

Daily Weather History Graph

Daily Weather History Graph

Search for Another Location

Airport:

Trip Planner

Search our weather history database for the weather conditions in past years. The results will help you decide how hot, cold, wet, or windy it might be!

Date:

Astronomy

Jul. 11, 2014 Rise Set
Actual Time 6:09 AM MDT 9:30 PM MDT
Civil Twilight 5:32 AM MDT 10:06 PM MDT
Nautical Twilight 4:45 AM MDT 10:53 PM MDT
Astronomical Twilight 3:45 AM MDT 11:52 PM MDT
Moon 8:41 PM MDT (7/11) 5:28 AM MDT (7/11)
Length of Visible Light 16h 33m
Length of Day
15h 21m
Waxing Gibbous, 99% of the Moon is Illuminated
Jul 11
Waxing Gibbous
Jul 12
Full
Jul 18
Last Quarter
Jul 26
New
Aug 3
First Quarter

Hourly Weather History & Observations

Time (MDT) Temp. Dew Point Humidity Pressure Visibility Wind Dir Wind Speed Gust Speed Precip Events Conditions
12:51 AM 61.0 °F 46.9 °F 60% 29.88 in 10.0 mi Calm Calm - N/A   Clear
1:51 AM 57.9 °F 46.0 °F 65% 29.89 in 10.0 mi NE 4.6 mph - N/A   Clear
2:51 AM 55.0 °F 46.0 °F 72% 29.88 in 10.0 mi SW 3.5 mph - N/A   Clear
4:51 AM 52.0 °F 43.0 °F 71% 29.91 in 10.0 mi Calm Calm - N/A   Clear
5:51 AM 51.1 °F 43.0 °F 74% 29.92 in 10.0 mi NE 3.5 mph - N/A   Clear
6:51 AM 50.0 °F 43.0 °F 77% 29.93 in 10.0 mi Calm Calm - N/A   Clear
7:51 AM 57.0 °F 44.1 °F 62% 29.94 in 10.0 mi Calm Calm - N/A   Clear
8:51 AM 63.0 °F 46.9 °F 56% 29.94 in 10.0 mi South 3.5 mph - N/A   Clear
9:51 AM 70.0 °F 46.9 °F 44% 29.94 in 10.0 mi Calm Calm - N/A   Clear
10:51 AM 75.0 °F 46.0 °F 36% 29.92 in 10.0 mi Calm Calm - N/A   Clear
12:51 PM 84.9 °F 36.0 °F 17% 29.92 in 10.0 mi Calm Calm - N/A   Clear
2:51 PM 87.1 °F 34.0 °F 15% 29.92 in 10.0 mi SSE 8.1 mph - N/A   Clear
3:51 PM 88.0 °F 33.1 °F 14% 29.91 in 10.0 mi NW 11.5 mph - N/A   Clear
4:51 PM 88.0 °F 33.1 °F 14% 29.91 in 10.0 mi NW 10.4 mph 17.3 mph N/A   Clear
5:51 PM 88.0 °F 32.0 °F 14% 29.92 in 10.0 mi West 10.4 mph - N/A   Clear
6:51 PM 84.0 °F 28.9 °F 14% 29.93 in 10.0 mi WNW 6.9 mph - N/A   Clear
8:51 PM 79.0 °F 36.0 °F 21% 29.94 in 10.0 mi NNW 5.8 mph - N/A   Clear
9:51 PM 75.9 °F 42.1 °F 30% 29.95 in 10.0 mi WNW 4.6 mph - N/A   Clear
10:51 PM 75.9 °F 37.0 °F 24% 29.96 in 10.0 mi North 11.5 mph 18.4 mph N/A   Clear
11:51 PM 73.9 °F 34.0 °F 23% 29.96 in 10.0 mi North 10.4 mph - N/A   Clear